Location: Bessat
(45.8735°N, 1.9924°E)
Time: 04:45:14
(UTC+00:00)

Nimbus 7 Rocket - Pass Details

Date: 11 May 2021
Orbit: 922 x 965 km, 99.4° (Epoch: 14 June)

Event Time Altitude Azimuth Distance (km) Brightness Sun altitude
Rises 23:17:41 0° 17° (NNE) 3,581 8.5 -25.6°
Reaches altitude 10° 23:20:08 10° 20° (NNE) 2,636 7.6 -25.7°
Maximum altitude 23:25:59 65° 103° (ESE) 1,017 4.4 -25.8°
Enters shadow 23:26:38 61° 138° (SE) 1,053 4.4 -25.8°
